TimeEDT,TemperatureF,Dew PointF,Humidity,Sea Level PressureIn,VisibilityMPH,Wind Direction,Wind SpeedMPH,Gust SpeedMPH,PrecipitationIn,Events,Conditions,WindDirDegrees,DateUTC
12:15 AM,59.0,53.6,82,30.06,-9999.0,Calm,Calm,-,N/A,,Clear,0,2013-09-04 04:15:00
12:35 AM,55.4,51.8,88,30.06,-9999.0,Calm,Calm,-,N/A,,Unknown,0,2013-09-04 04:35:00
12:55 AM,55.4,51.8,88,30.07,-9999.0,Calm,Calm,-,N/A,,Unknown,0,2013-09-04 04:55:00
1:15 AM,55.4,51.8,88,30.08,-9999.0,Calm,Calm,-,N/A,,Unknown,0,2013-09-04 05:15:00
1:35 AM,55.4,51.8,88,30.08,-9999.0,Calm,Calm,-,N/A,,Unknown,0,2013-09-04 05:35:00
1:55 AM,53.6,51.8,94,30.08,-9999.0,Calm,Calm,-,N/A,,Unknown,0,2013-09-04 05:55:00
2:15 AM,53.6,51.8,94,30.08,-9999.0,Calm,Calm,-,N/A,,Unknown,0,2013-09-04 06:15:00
2:35 AM,53.6,51.8,94,30.08,-9999.0,Calm,Calm,-,N/A,,Unknown,0,2013-09-04 06:35:00
2:55 AM,53.6,50.0,88,30.08,-9999.0,Calm,Calm,-,N/A,,Unknown,0,2013-09-04 06:55:00
3:15 AM,53.6,51.8,94,30.08,-9999.0,Calm,Calm,-,N/A,,Unknown,0,2013-09-04 07:15:00
3:35 AM,53.6,50.0,88,30.09,-9999.0,Calm,Calm,-,N/A,,Unknown,0,2013-09-04 07:35:00
3:55 AM,53.6,50.0,88,30.09,-9999.0,Calm,Calm,-,N/A,,Unknown,0,2013-09-04 07:55:00
4:15 AM,53.6,51.8,94,30.10,-9999.0,Calm,Calm,-,N/A,,Unknown,0,2013-09-04 08:15:00
4:35 AM,53.6,50.0,88,30.10,-9999.0,Calm,Calm,-,N/A,,Unknown,0,2013-09-04 08:35:00
4:55 AM,53.6,50.0,88,30.10,-9999.0,Calm,Calm,-,N/A,,Unknown,0,2013-09-04 08:55:00
5:15 AM,51.8,50.0,94,30.10,-9999.0,Calm,Calm,-,N/A,,Unknown,0,2013-09-04 09:15:00
5:35 AM,51.8,50.0,94,30.10,-9999.0,Calm,Calm,-,N/A,,Unknown,0,2013-09-04 09:35:00
5:55 AM,51.8,50.0,94,30.10,-9999.0,Calm,Calm,-,N/A,,Unknown,0,2013-09-04 09:55:00
6:15 AM,51.8,50.0,94,30.10,-9999.0,Calm,Calm,-,N/A,,Unknown,0,2013-09-04 10:15:00
6:35 AM,51.8,50.0,94,30.11,-9999.0,Calm,Calm,-,N/A,,Unknown,0,2013-09-04 10:35:00
6:55 AM,51.8,50.0,94,30.11,-9999.0,Calm,Calm,-,N/A,,Unknown,0,2013-09-04 10:55:00
7:15 AM,51.8,50.0,94,30.12,-9999.0,Calm,Calm,-,N/A,,Unknown,0,2013-09-04 11:15:00
7:35 AM,51.8,50.0,94,30.12,-9999.0,Calm,Calm,-,N/A,,Unknown,0,2013-09-04 11:35:00
7:55 AM,53.6,51.8,94,30.13,-9999.0,Calm,Calm,-,N/A,,Unknown,0,2013-09-04 11:55:00
8:15 AM,55.4,53.6,94,30.13,-9999.0,Calm,Calm,-,N/A,,Unknown,0,2013-09-04 12:15:00
8:35 AM,57.2,53.6,88,30.13,-9999.0,Calm,Calm,-,N/A,,Unknown,0,2013-09-04 12:35:00
8:55 AM,60.8,53.6,77,30.13,-9999.0,Calm,Calm,-,N/A,,Clear,0,2013-09-04 12:55:00
9:15 AM,62.6,55.4,77,-9999,-9999.0,North,-9999.0,-,N/A,,Clear,0,2013-09-04 13:15:00
9:35 AM,64.4,55.4,73,30.13,10.0,WSW,5.8,-,0.06,,Clear,250,2013-09-04 13:35:00
9:55 AM,66.2,55.4,68,30.14,10.0,West,5.8,-,0.06,,Clear,270,2013-09-04 13:55:00
10:15 AM,68.0,55.4,64,30.15,10.0,West,5.8,-,N/A,,Clear,260,2013-09-04 14:15:00
10:35 AM,69.8,55.4,60,30.14,10.0,WSW,6.9,-,N/A,,Clear,240,2013-09-04 14:35:00
10:55 AM,71.6,53.6,53,30.13,10.0,West,6.9,-,N/A,,Clear,270,2013-09-04 14:55:00
11:15 AM,73.4,53.6,50,30.13,10.0,West,6.9,-,N/A,,Clear,260,2013-09-04 15:15:00
11:35 AM,73.4,51.8,47,30.14,10.0,WSW,5.8,-,N/A,,Clear,240,2013-09-04 15:35:00
11:55 AM,73.4,51.8,47,30.13,10.0,WSW,6.9,-,N/A,,Clear,250,2013-09-04 15:55:00
12:15 PM,75.2,51.8,44,30.13,10.0,WSW,3.5,-,N/A,,Clear,240,2013-09-04 16:15:00
12:35 PM,77.0,51.8,41,30.13,10.0,West,9.2,-,N/A,,Clear,270,2013-09-04 16:35:00
12:55 PM,77.0,51.8,41,30.13,-9999.0,WSW,9.2,17.3,N/A,,Clear,240,2013-09-04 16:55:00
1:15 PM,77.0,51.8,41,30.12,-9999.0,SW,8.1,16.1,N/A,,Clear,230,2013-09-04 17:15:00
1:35 PM,77.0,51.8,41,30.13,-9999.0,WNW,8.1,-,N/A,,Clear,290,2013-09-04 17:35:00
1:55 PM,78.8,51.8,39,30.12,-9999.0,West,11.5,18.4,N/A,,Clear,260,2013-09-04 17:55:00
2:15 PM,78.8,50.0,36,30.12,-9999.0,WSW,8.1,-,N/A,,Clear,240,2013-09-04 18:15:00
2:35 PM,80.6,50.0,34,30.12,-9999.0,West,10.4,17.3,N/A,,Clear,260,2013-09-04 18:35:00
2:55 PM,80.6,50.0,34,30.11,-9999.0,WNW,11.5,17.3,N/A,,Clear,290,2013-09-04 18:55:00
3:15 PM,80.6,50.0,34,30.11,-9999.0,WNW,11.5,-,N/A,,Clear,290,2013-09-04 19:15:00
3:35 PM,80.6,50.0,34,30.10,-9999.0,WSW,11.5,16.1,N/A,,Clear,250,2013-09-04 19:35:00
3:55 PM,82.4,48.2,30,30.10,-9999.0,West,11.5,17.3,N/A,,Clear,270,2013-09-04 19:55:00
4:15 PM,80.6,48.2,32,30.10,-9999.0,West,10.4,19.6,N/A,,Clear,270,2013-09-04 20:15:00
4:35 PM,82.4,50.0,32,30.10,-9999.0,West,8.1,-,N/A,,Clear,280,2013-09-04 20:35:00
4:55 PM,80.6,50.0,34,30.10,-9999.0,WNW,11.5,-,N/A,,Clear,290,2013-09-04 20:55:00
5:15 PM,80.6,50.0,34,30.09,-9999.0,WSW,9.2,16.1,N/A,,Clear,250,2013-09-04 21:15:00
5:35 PM,80.6,51.8,37,30.09,-9999.0,West,8.1,-,N/A,,Clear,260,2013-09-04 21:35:00
5:55 PM,78.8,51.8,39,30.08,-9999.0,WSW,5.8,-,N/A,,Clear,250,2013-09-04 21:55:00
6:15 PM,78.8,51.8,39,30.08,-9999.0,WSW,8.1,-,N/A,,Clear,240,2013-09-04 22:15:00
6:35 PM,78.8,51.8,39,30.08,-9999.0,West,9.2,-,N/A,,Clear,260,2013-09-04 22:35:00
6:55 PM,77.0,53.6,44,30.09,-9999.0,West,3.5,-,N/A,,Clear,260,2013-09-04 22:55:00
7:15 PM,77.0,51.8,41,30.09,-9999.0,West,6.9,-,N/A,,Clear,280,2013-09-04 23:15:00
7:35 PM,77.0,48.2,36,30.09,-9999.0,West,4.6,-,N/A,,Clear,270,2013-09-04 23:35:00
7:55 PM,73.4,50.0,44,30.09,-9999.0,West,3.5,-,N/A,,Clear,270,2013-09-04 23:55:00
8:15 PM,71.6,51.8,50,30.10,-9999.0,Calm,Calm,-,N/A,,Clear,0,2013-09-05 00:15:00
8:35 PM,69.8,51.8,53,30.10,-9999.0,Calm,Calm,-,N/A,,Clear,0,2013-09-05 00:35:00
8:55 PM,68.0,51.8,56,30.11,-9999.0,Calm,Calm,-,N/A,,Clear,0,2013-09-05 00:55:00
9:15 PM,66.2,51.8,60,30.11,-9999.0,Calm,Calm,-,N/A,,Clear,0,2013-09-05 01:15:00
9:35 PM,64.4,51.8,64,30.12,-9999.0,Calm,Calm,-,N/A,,Clear,0,2013-09-05 01:35:00
9:55 PM,62.6,51.8,68,30.13,-9999.0,Calm,Calm,-,N/A,,Clear,0,2013-09-05 01:55:00
10:15 PM,62.6,51.8,68,30.13,-9999.0,Calm,Calm,-,N/A,,Clear,0,2013-09-05 02:15:00
10:35 PM,62.6,51.8,68,30.12,-9999.0,Calm,Calm,-,N/A,,Clear,0,2013-09-05 02:35:00
10:55 PM,60.8,51.8,72,30.13,-9999.0,Calm,Calm,-,N/A,,Clear,0,2013-09-05 02:55:00
11:15 PM,60.8,51.8,72,30.13,-9999.0,Calm,Calm,-,N/A,,Clear,0,2013-09-05 03:15:00
11:35 PM,60.8,53.6,77,30.13,-9999.0,Calm,Calm,-,N/A,,Clear,0,2013-09-05 03:35:00
11:55 PM,59.0,51.8,77,30.13,-9999.0,Calm,Calm,-,N/A,,Clear,0,2013-09-05 03:55:00